Regional Weather Roundup
Issued by NWS

Home | Current Version | Previous Version | Text Only | Print | Product List | Glossary Off
Versions: 1 2 3 4 5 6 7 8 9 10 11 12 13 14 15 16 17 18 19 20 21 22 23 24 25 26 27 28 29 30 31 32 33 34 35 36 37 38 39 40 41 42 43 44 45 46 47 48 49 50

000
ASUS43 KLSX 262110
RWRMO

WEATHER SUMMARY FOR MISSOURI
NATIONAL WEATHER SERVICE SPRINGFIELD MO
400 PM CDT MON JUN 26 2017

NOTE: "FAIR" INDICATES FEW OR NO CLOUDS BELOW 12,000 FEET WITH NO
       SIGNIFICANT WEATHER AND/OR OBSTRUCTIONS TO VISIBILITY.
       CURRENT SKY AND/OR WEATHER CONDITIONS ARE NOT AVAILABLE FOR
       CHILLICOTHE AND FARMINGTON.

MOZ001>031-035>038-043-044-053-054-262200-
...NORTHERN AND WESTERN MISSOURI...

CITY           SKY/WX    TMP DP  RH WIND       PRES   REMARKS
KANSAS CTY INT CLOUDY    68  55  63 S9        30.14F
KANSAS C DTWN  PTSUNNY   73  53  49 S13       30.13F
LEE`S SUMMIT   MOSUNNY   70  55  59 SE13      30.15F
ST JOSEPH      CLOUDY    67  61  81 S5        30.14F
CHILLICOTHE      N/A     67  58  72 S6        30.16S
KIRKSVILLE     SUNNY     72  55  55 W9G18     30.14F

$$
MOZ066>068-077>081-088>096-101>105-262200-
...SOUTHWEST MISSOURI...

CITY           SKY/WX    TMP DP  RH WIND       PRES   REMARKS
SPRINGFIELD    CLOUDY    73  63  70 N13       30.14F
JOPLIN         CLOUDY    84  63  49 SW9       30.09F
BRANSON        CLOUDY    79  59  50 CALM      30.14F

$$
MOZ032>034-039>042-045>050-055>058-069>072-262200-
...CENTRAL MISSOURI...

CITY           SKY/WX    TMP DP  RH WIND       PRES   REMARKS
COLUMBIA       LGT RAIN  61  58  90 S13       30.14F
JEFFERSON CITY LGT RAIN  63  58  83 S3        30.18F
ROLLA          CLOUDY    68  53  58 N10G24    30.18R
SEDALIA        LGT RAIN  61  60  97 S10       30.17F
WHITEMAN AFB   PTSUNNY   61  61 100 S5        30.13F
WARRENSBURG    MOSUNNY   66  55  68 SE8       30.13F
OSAGE BEACH    CLOUDY    64  55  72 N7        30.21R

$$
MOZ051-052-059>065-262200-
...EAST CENTRAL MISSOURI...

CITY           SKY/WX    TMP DP  RH WIND       PRES   REMARKS
ST LOUIS INTL  CLOUDY    74  50  42 SW8       30.14F
SPIRIT OF STL  CLOUDY    72  52  49 NW7       30.14F
ST CHARLES     CLOUDY    72  52  49 CALM      30.14S

$$
MOZ072>076-082>087-097>100-106>115-262200-
...SOUTH CENTRAL AND SOUTHEAST MISSOURI...

CITY           SKY/WX    TMP DP  RH WIND       PRES   REMARKS
CAPE GIRARDEAU CLOUDY    78  52  40 VRB3      30.13F
FARMINGTON     CLOUDY    78  49  35 N6        30.14F
POPLAR BLUFF   MOSUNNY   76  59  55 E3        30.13F
WEST PLAINS    CLOUDY    74  61  63 SW6       30.15F

$$




USA.gov is the U.S. government's official web portal to all federal, state and local government web resources and services.